| time (UTC) | temp F | wind direction | speed MPH | gust MPH | rain 1hr in | rain 24hr in | rain mn in | humidity % | barometer mb |
| 20260510151830 | 63 | 50 | 1.0 | 3.0 | 0.00 | 0.01 | 0.00 | 89 | 1013.8 |
| 20260510151321 | 62 | 111 | 2.0 | 7.0 | 0.00 | 0.01 | 0.00 | 90 | 1013.8 |
| 20260510150834 | 61 | 99 | 2.0 | 7.0 | 0.00 | 0.01 | 0.00 | 90 | 1013.8 |
| 20260510150325 | 61 | 317 | 1.0 | 3.0 | 0.00 | 0.01 | 0.00 | 92 | 1013.9 |
| 20260510145817 | 60 | 198 | 1.0 | 3.0 | 0.00 | 0.01 | 0.00 | 93 | 1013.8 |
| 20260510145348 | 59 | 318 | 1.0 | 3.0 | 0.00 | 0.01 | 0.00 | 93 | 1013.9 |
| 20260510144822 | 58 | 134 | 1.0 | 4.0 | 0.00 | 0.01 | 0.00 | 93 | 1014.1 |
| 20260510144314 | 57 | 113 | 3.0 | 4.0 | 0.00 | 0.01 | 0.00 | 92 | 1014.1 |
| 20260510143826 | 57 | 114 | 2.0 | 4.0 | 0.00 | 0.01 | 0.00 | 93 | 1014.1 |
| 20260510143321 | 57 | 125 | 1.0 | 2.0 | 0.00 | 0.01 | 0.00 | 93 | 1014.0 |
| 20260510142835 | 57 | 234 | 1.0 | 4.0 | 0.00 | 0.01 | 0.00 | 94 | 1014.0 |
| 20260510142329 | 56 | 142 | 2.0 | 4.0 | 0.00 | 0.01 | 0.00 | 93 | 1014.0 |
| 20260510141820 | 56 | 102 | 0.0 | 3.0 | 0.00 | 0.01 | 0.00 | 94 | 1014.0 |
| 20260510141351 | 56 | 27 | 0.0 | 3.0 | 0.00 | 0.01 | 0.00 | 94 | 1014.0 |
| 20260510140842 | 56 | 84 | 0.0 | 2.0 | 0.00 | 0.01 | 0.00 | 94 | 1013.9 |
| 20260510140315 | 55 | 127 | 0.0 | 2.0 | 0.00 | 0.01 | 0.00 | 93 | 1014.0 |
| 20260510135848 | 56 | 156 | 0.0 | 2.0 | 0.00 | 0.01 | 0.00 | 94 | 1013.8 |
| 20260510135317 | 55 | 218 | 1.0 | 2.0 | 0.00 | 0.01 | 0.00 | 94 | 1013.8 |
| 20260510134848 | 55 | 247 | 0.0 | 1.0 | 0.00 | 0.01 | 0.00 | 94 | 1013.8 |
| 20260510134339 | 55 | 247 | 0.0 | 2.0 | 0.00 | 0.01 | 0.00 | 94 | 1013.8 |
| 20260510133812 | 55 | 247 | 2.0 | 4.0 | 0.00 | 0.01 | 0.00 | 94 | 1013.7 |
| 20260510133327 | 55 | 16 | 1.0 | 4.0 | 0.00 | 0.01 | 0.00 | 94 | 1013.8 |
| 20260510132818 | 54 | 324 | 1.0 | 3.0 | 0.00 | 0.01 | 0.00 | 94 | 1013.7 |
| 20260510132333 | 54 | 33 | 1.0 | 3.0 | 0.00 | 0.01 | 0.00 | 93 | 1013.5 |
| 20260510131825 | 54 | 300 | 2.0 | 4.0 | 0.00 | 0.01 | 0.00 | 93 | 1013.4 |
| 20260510131321 | 54 | 340 | 2.0 | 4.0 | 0.00 | 0.01 | 0.00 | 94 | 1013.5 |
| 20260510130831 | 54 | 355 | 2.0 | 4.0 | 0.00 | 0.01 | 0.00 | 93 | 1013.6 |
| 20260510130323 | 54 | 5 | 0.0 | 1.0 | 0.00 | 0.01 | 0.00 | 94 | 1013.5 |
| 20260510125854 | 54 | 5 | 0.0 | 3.0 | 0.00 | 0.01 | 0.00 | 94 | 1013.5 |
| 20260510125325 | 53 | 5 | 1.0 | 3.0 | 0.00 | 0.01 | 0.00 | 94 | 1013.4 |
| 20260510124817 | 53 | 17 | 0.0 | 3.0 | 0.00 | 0.01 | 0.00 | 94 | 1013.4 |
| 20260510124328 | 53 | 327 | 0.0 | 3.0 | 0.00 | 0.01 | 0.00 | 94 | 1013.5 |
| 20260510123838 | 53 | 328 | 1.0 | 3.0 | 0.00 | 0.01 | 0.00 | 94 | 1013.5 |
| 20260510123329 | 53 | 327 | 1.0 | 3.0 | 0.00 | 0.01 | 0.00 | 93 | 1013.5 |
| 20260510122821 | 52 | 341 | 1.0 | 3.0 | 0.00 | 0.01 | 0.00 | 93 | 1013.3 |
| 20260510122339 | 52 | 45 | 1.0 | 4.0 | 0.00 | 0.01 | 0.00 | 93 | 1013.0 |
| 20260510121833 | 52 | 104 | 1.0 | 4.0 | 0.00 | 0.01 | 0.00 | 93 | 1012.9 |
| 20260510121324 | 52 | 63 | 1.0 | 6.0 | 0.00 | 0.01 | 0.00 | 93 | 1012.9 |
| 20260510120815 | 52 | 65 | 2.0 | 4.0 | 0.00 | 0.01 | 0.00 | 93 | 1012.9 |
| 20260510120327 | 52 | 88 | 1.0 | 3.0 | 0.00 | 0.01 | 0.00 | 93 | 1012.8 |
| 20260510115819 | 52 | 99 | 1.0 | 5.0 | 0.00 | 0.01 | 0.00 | 93 | 1012.8 |
| 20260510115330 | 52 | 59 | 2.0 | 8.0 | 0.00 | 0.01 | 0.00 | 93 | 1012.7 |
| 20260510114824 | 52 | 55 | 3.0 | 8.0 | 0.00 | 0.01 | 0.00 | 93 | 1012.8 |
| 20260510114320 | 52 | 49 | 2.0 | 7.0 | 0.00 | 0.01 | 0.00 | 93 | 1012.8 |
| 20260510113851 | 53 | 42 | 2.0 | 7.0 | 0.00 | 0.01 | 0.00 | 93 | 1012.7 |
| 20260510113322 | 53 | 84 | 1.0 | 5.0 | 0.00 | 0.01 | 0.00 | 93 | 1012.8 |
| 20260510112833 | 52 | 53 | 2.0 | 7.0 | 0.00 | 0.01 | 0.00 | 93 | 1012.6 |
| 20260510112325 | 52 | 39 | 3.0 | 8.0 | 0.00 | 0.01 | 0.00 | 93 | 1012.5 |
| 20260510111816 | 52 | 40 | 4.0 | 8.0 | 0.00 | 0.01 | 0.00 | 93 | 1012.5 |
| 20260510111330 | 52 | 360 | 3.0 | 6.0 | 0.00 | 0.01 | 0.00 | 93 | 1012.5 |
| 20260510110821 | 52 | 51 | 3.0 | 5.0 | 0.00 | 0.01 | 0.00 | 93 | 1012.5 |
| 20260510110333 | 52 | 43 | 3.0 | 5.0 | 0.00 | 0.01 | 0.00 | 93 | 1012.6 |
| 20260510105829 | 52 | 55 | 1.0 | 5.0 | 0.00 | 0.01 | 0.00 | 93 | 1012.7 |
| 20260510105339 | 52 | 350 | 2.0 | 5.0 | 0.00 | 0.01 | 0.00 | 93 | 1012.8 |
| 20260510104830 | 52 | 13 | 1.0 | 4.0 | 0.00 | 0.01 | 0.00 | 93 | 1012.7 |
| 20260510104321 | 51 | 355 | 2.0 | 6.0 | 0.00 | 0.01 | 0.00 | 93 | 1012.6 |
| 20260510103833 | 51 | 342 | 3.0 | 6.0 | 0.00 | 0.01 | 0.00 | 93 | 1012.6 |
| 20260510103324 | 51 | 351 | 3.0 | 6.0 | 0.00 | 0.01 | 0.00 | 93 | 1012.6 |
| 20260510102836 | 51 | 85 | 2.0 | 6.0 | 0.00 | 0.01 | 0.00 | 93 | 1012.4 |
| 20260510102350 | 51 | 33 | 3.0 | 8.0 | 0.00 | 0.01 | 0.00 | 93 | 1012.3 |
| 20260510101820 | 51 | 355 | 5.0 | 9.0 | 0.00 | 0.01 | 0.00 | 93 | 1012.6 |
| 20260510101352 | 51 | 19 | 4.0 | 9.0 | 0.00 | 0.01 | 0.00 | 93 | 1012.4 |
| 20260510100843 | 50 | 5 | 4.0 | 6.0 | 0.00 | 0.01 | 0.00 | 93 | 1012.2 |
| 20260510100317 | 50 | 16 | 3.0 | 5.0 | 0.00 | 0.01 | 0.00 | 93 | 1012.1 |
| 20260510095828 | 50 | 58 | 3.0 | 5.0 | 0.00 | 0.01 | 0.00 | 92 | 1012.0 |
| 20260510095339 | 50 | 48 | 3.0 | 5.0 | 0.00 | 0.01 | 0.00 | 92 | 1011.9 |
| 20260510094829 | 50 | 65 | 1.0 | 6.0 | 0.00 | 0.01 | 0.00 | 92 | 1011.9 |
| 20260510094321 | 50 | 42 | 1.0 | 6.0 | 0.00 | 0.01 | 0.00 | 92 | 1011.9 |
| 20260510093853 | 50 | 24 | 3.0 | 7.0 | 0.00 | 0.01 | 0.00 | 92 | 1011.9 |
| 20260510093323 | 51 | 43 | 4.0 | 9.0 | 0.00 | 0.01 | 0.00 | 92 | 1011.8 |
| 20260510092814 | 51 | 57 | 3.0 | 9.0 | 0.00 | 0.01 | 0.00 | 92 | 1011.8 |
| 20260510092349 | 51 | 66 | 2.0 | 7.0 | 0.00 | 0.01 | 0.00 | 92 | 1011.8 |
| 20260510091823 | 51 | 41 | 2.0 | 7.0 | 0.00 | 0.01 | 0.00 | 92 | 1011.7 |
| 20260510090833 | 51 | 53 | 2.0 | 4.0 | 0.00 | 0.01 | 0.00 | 92 | 1011.6 |
| 20260510090343 | 50 | 42 | 2.0 | 4.0 | 0.00 | 0.01 | 0.00 | 92 | 1011.7 |
| 20260510085814 | 50 | 17 | 2.0 | 5.0 | 0.00 | 0.01 | 0.00 | 92 | 1011.7 |
| 20260510085325 | 50 | 32 | 2.0 | 5.0 | 0.00 | 0.01 | 0.00 | 92 | 1011.7 |
| 20260510084816 | 50 | 28 | 2.0 | 5.0 | 0.00 | 0.01 | 0.00 | 92 | 1011.6 |
| 20260510084331 | 50 | 45 | 3.0 | 5.0 | 0.00 | 0.01 | 0.00 | 92 | 1011.7 |
| 20260510083822 | 50 | 360 | 2.0 | 4.0 | 0.00 | 0.01 | 0.00 | 92 | 1011.7 |
| 20260510083354 | 50 | 23 | 2.0 | 4.0 | 0.00 | 0.01 | 0.00 | 92 | 1011.6 |
| 20260510082824 | 50 | 22 | 1.0 | 4.0 | 0.00 | 0.01 | 0.00 | 92 | 1011.6 |
| 20260510082325 | 49 | 27 | 1.0 | 2.0 | 0.00 | 0.01 | 0.00 | 91 | 1011.5 |
| 20260510081328 | 49 | 317 | 1.0 | 2.0 | 0.00 | 0.01 | 0.00 | 91 | 1011.4 |
| 20260510080822 | 49 | 317 | 0.0 | 1.0 | 0.00 | 0.01 | 0.00 | 91 | 1011.4 |
| 20260510080316 | 49 | 317 | 0.0 | 1.0 | 0.00 | 0.01 | 0.00 | 91 | 1011.3 |
| 20260510075828 | 49 | 317 | 0.0 | 0.0 | 0.00 | 0.01 | 0.00 | 91 | 1011.2 |
| 20260510075343 | 50 | 317 | 0.0 | 1.0 | 0.00 | 0.01 | 0.00 | 91 | 1011.2 |
| 20260510074813 | 50 | 317 | 0.0 | 1.0 | 0.00 | 0.01 | 0.00 | 91 | 1011.1 |
| 20260510074348 | 49 | 317 | 0.0 | 1.0 | 0.00 | 0.01 | 0.00 | 91 | 1011.1 |
| 20260510073823 | 49 | 290 | 0.0 | 1.0 | 0.00 | 0.01 | 0.00 | 91 | 1011.0 |
| 20260510073334 | 49 | 290 | 0.0 | 1.0 | 0.00 | 0.01 | 0.00 | 91 | 1011.1 |
| 20260510072826 | 50 | 290 | 0.0 | 1.0 | 0.00 | 0.01 | 0.00 | 91 | 1011.0 |
| 20260510072322 | 50 | 290 | 0.0 | 1.0 | 0.00 | 0.01 | 0.00 | 91 | 1010.9 |
| 20260510071835 | 50 | 290 | 0.0 | 1.0 | 0.00 | 0.01 | 0.00 | 91 | 1011.0 |
| 20260510071326 | 50 | 290 | 0.0 | 0.0 | 0.00 | 0.01 | 0.00 | 91 | 1011.0 |
| 20260510070817 | 50 | 290 | 0.0 | 0.0 | 0.00 | 0.01 | 0.00 | 91 | 1011.0 |
| 20260510070332 | 50 | 290 | 0.0 | 0.0 | 0.00 | 0.01 | 0.00 | 91 | 1011.0 |
| 20260510065823 | 50 | 290 | 0.0 | 0.0 | 0.00 | 0.01 | 0.00 | 91 | 1011.0 |
| 20260510065321 | 50 | 290 | 0.0 | 1.0 | 0.00 | 0.01 | 0.00 | 91 | 1011.0 |
| 20260510064832 | 50 | 290 | 0.0 | 1.0 | 0.00 | 0.01 | 0.00 | 91 | 1011.0 |
| 20260510064344 | 50 | 290 | 0.0 | 1.0 | 0.00 | 0.01 | 0.00 | 91 | 1011.1 |
| 20260510063837 | 50 | 290 | 0.0 | 1.0 | 0.00 | 0.01 | 0.00 | 91 | 1011.1 |
| 20260510062823 | 50 | 290 | 0.0 | 1.0 | 0.00 | 0.01 | 0.00 | 91 | 1011.0 |
| 20260510062334 | 50 | 290 | 0.0 | 1.0 | 0.00 | 0.01 | 0.00 | 91 | 1011.1 |
| 20260510061826 | 50 | 290 | 0.0 | 1.0 | 0.00 | 0.01 | 0.00 | 91 | 1011.0 |
| 20260510061337 | 50 | 290 | 0.0 | 1.0 | 0.00 | 0.01 | 0.00 | 91 | 1011.1 |
| 20260510060814 | 50 | 290 | 0.0 | 1.0 | 0.00 | 0.01 | 0.00 | 91 | 1011.0 |
| 20260510060325 | 50 | 290 | 0.0 | 1.0 | 0.00 | 0.01 | 0.00 | 91 | 1011.1 |
| 20260510055817 | 50 | 290 | 0.0 | 1.0 | 0.00 | 0.01 | 0.00 | 90 | 1011.1 |
| 20260510055351 | 50 | 290 | 0.0 | 1.0 | 0.00 | 0.01 | 0.00 | 91 | 1011.2 |
| 20260510054822 | 50 | 290 | 0.0 | 1.0 | 0.00 | 0.01 | 0.00 | 90 | 1011.1 |
| 20260510054333 | 50 | 290 | 0.0 | 1.0 | 0.00 | 0.01 | 0.00 | 90 | 1011.2 |
| 20260510053825 | 50 | 290 | 0.0 | 1.0 | 0.00 | 0.01 | 0.00 | 90 | 1011.3 |
| 20260510053336 | 50 | 281 | 0.0 | 1.0 | 0.00 | 0.01 | 0.00 | 90 | 1011.3 |
| 20260510052830 | 50 | 281 | 0.0 | 1.0 | 0.00 | 0.01 | 0.00 | 90 | 1011.2 |
| 20260510052321 | 50 | 281 | 0.0 | 1.0 | 0.00 | 0.01 | 0.00 | 90 | 1011.4 |
| 20260510051820 | 50 | 281 | 0.0 | 0.0 | 0.00 | 0.01 | 0.00 | 90 | 1011.4 |
| 20260510051332 | 50 | 281 | 0.0 | 0.0 | 0.00 | 0.01 | 0.00 | 90 | 1011.4 |
| 20260510050842 | 50 | 281 | 0.0 | 0.0 | 0.00 | 0.01 | 0.00 | 90 | 1011.3 |
| 20260510050333 | 51 | 281 | 0.0 | 0.0 | 0.00 | 0.01 | 0.00 | 90 | 1011.4 |
| 20260510045825 | 51 | 281 | 0.0 | 0.0 | 0.00 | 0.01 | 0.00 | 90 | 1011.4 |
| 20260510045316 | 51 | 281 | 0.0 | 2.0 | 0.00 | 0.01 | 0.00 | 90 | 1011.5 |
| 20260510044828 | 51 | 281 | 0.0 | 2.0 | 0.00 | 0.01 | 0.00 | 90 | 1011.6 |
| 20260510044320 | 51 | 297 | 0.0 | 2.0 | 0.00 | 0.01 | 0.00 | 90 | 1011.6 |
| 20260510043814 | 50 | 267 | 1.0 | 2.0 | 0.00 | 0.01 | 0.00 | 90 | 1011.6 |
| 20260510043326 | 50 | 46 | 0.0 | 2.0 | 0.00 | 0.01 | 0.00 | 89 | 1011.6 |
| 20260510042818 | 50 | 46 | 0.0 | 1.0 | 0.00 | 0.01 | 0.00 | 89 | 1011.6 |
| 20260510042330 | 51 | 46 | 0.0 | 0.0 | 0.00 | 0.01 | 0.00 | 89 | 1011.7 |
| 20260510041822 | 51 | 46 | 0.0 | 0.0 | 0.00 | 0.01 | 0.00 | 89 | 1011.6 |
| 20260510041333 | 51 | 46 | 0.0 | 0.0 | 0.00 | 0.01 | 0.00 | 89 | 1011.6 |
| 20260510040316 | 51 | 46 | 0.0 | 0.0 | 0.00 | 0.01 | 0.00 | 89 | 1011.6 |
| 20260510035823 | 51 | 46 | 0.0 | 0.0 | 0.00 | 0.01 | 0.00 | 89 | 1011.5 |
| 20260510035319 | 51 | 46 | 0.0 | 0.0 | 0.00 | 0.01 | 0.00 | 89 | 1011.4 |
| 20260510034833 | 51 | 46 | 0.0 | 0.0 | 0.00 | 0.01 | 0.00 | 89 | 1011.3 |
| 20260510034325 | 51 | 46 | 0.0 | 0.0 | 0.00 | 0.01 | 0.00 | 89 | 1011.2 |
| 20260510033820 | 51 | 46 | 0.0 | 0.0 | 0.00 | 0.01 | 0.01 | 89 | 1011.1 |
| 20260510033315 | 51 | 46 | 0.0 | 1.0 | 0.00 | 0.01 | 0.01 | 89 | 1011.0 |
| 20260510032826 | 51 | 46 | 0.0 | 1.0 | 0.00 | 0.01 | 0.01 | 89 | 1010.9 |
| 20260510032317 | 52 | 46 | 0.0 | 0.0 | 0.00 | 0.01 | 0.01 | 89 | 1011.1 |
| 20260510031828 | 52 | 46 | 0.0 | 0.0 | 0.00 | 0.01 | 0.01 | 89 | 1011.1 |
| 20260510030818 | 52 | 46 | 0.0 | 1.0 | 0.00 | 0.01 | 0.01 | 89 | 1011.2 |
| 20260510030329 | 52 | 46 | 0.0 | 1.0 | 0.00 | 0.01 | 0.01 | 89 | 1011.2 |
| 20260510025824 | 52 | 46 | 0.0 | 0.0 | 0.00 | 0.01 | 0.01 | 89 | 1011.1 |
| 20260510025315 | 52 | 46 | 0.0 | 0.0 | 0.00 | 0.01 | 0.01 | 89 | 1011.2 |
| 20260510024829 | 52 | 46 | 0.0 | 0.0 | 0.00 | 0.01 | 0.01 | 89 | 1011.2 |
| 20260510024319 | 52 | 46 | 0.0 | 0.0 | 0.00 | 0.01 | 0.01 | 89 | 1011.2 |
| 20260510023815 | 52 | 46 | 0.0 | 0.0 | 0.00 | 0.01 | 0.01 | 89 | 1011.1 |
| 20260510023333 | 52 | 46 | 0.0 | 0.0 | 0.00 | 0.01 | 0.01 | 89 | 1011.1 |
| 20260510022824 | 53 | 46 | 0.0 | 0.0 | 0.00 | 0.01 | 0.01 | 89 | 1011.2 |
| 20260510022336 | 53 | 46 | 0.0 | 0.0 | 0.00 | 0.01 | 0.01 | 89 | 1011.2 |
| 20260510021847 | 53 | 46 | 0.0 | 0.0 | 0.00 | 0.01 | 0.01 | 89 | 1011.3 |
| 20260510021317 | 53 | 46 | 0.0 | 1.0 | 0.00 | 0.01 | 0.01 | 89 | 1011.2 |
| 20260510020828 | 53 | 46 | 0.0 | 2.0 | 0.00 | 0.01 | 0.01 | 89 | 1011.1 |
| 20260510020320 | 53 | 46 | 0.0 | 2.0 | 0.00 | 0.01 | 0.01 | 89 | 1011.2 |
| 20260510015851 | 53 | 46 | 1.0 | 2.0 | 0.00 | 0.01 | 0.01 | 89 | 1011.2 |
| 20260510015322 | 53 | 46 | 0.0 | 0.0 | 0.00 | 0.01 | 0.01 | 89 | 1011.3 |
| 20260510014834 | 53 | 46 | 0.0 | 2.0 | 0.00 | 0.01 | 0.01 | 89 | 1011.3 |
| 20260510014329 | 53 | 46 | 0.0 | 2.0 | 0.00 | 0.01 | 0.01 | 89 | 1011.2 |
| 20260510013843 | 54 | 46 | 0.0 | 2.0 | 0.00 | 0.01 | 0.01 | 89 | 1011.2 |
| 20260510013334 | 54 | 46 | 1.0 | 2.0 | 0.00 | 0.01 | 0.01 | 89 | 1011.2 |
| 20260510012825 | 54 | 46 | 0.0 | 2.0 | 0.00 | 0.01 | 0.01 | 89 | 1011.2 |
| 20260510012316 | 54 | 46 | 0.0 | 3.0 | 0.00 | 0.01 | 0.01 | 89 | 1011.1 |
| 20260510011826 | 54 | 46 | 1.0 | 3.0 | 0.00 | 0.01 | 0.01 | 89 | 1011.1 |
| 20260510011316 | 54 | 59 | 1.0 | 3.0 | 0.00 | 0.01 | 0.01 | 88 | 1011.1 |
| 20260510010828 | 54 | 46 | 1.0 | 3.0 | 0.00 | 0.01 | 0.01 | 89 | 1011.1 |
| 20260510010322 | 54 | 44 | 0.0 | 3.0 | 0.00 | 0.01 | 0.01 | 89 | 1011.1 |
| 20260510005818 | 54 | 39 | 1.0 | 3.0 | 0.00 | 0.01 | 0.01 | 88 | 1011.0 |
| 20260510005329 | 54 | 80 | 1.0 | 3.0 | 0.00 | 0.01 | 0.01 | 88 | 1011.0 |
| 20260510004820 | 54 | 46 | 2.0 | 3.0 | 0.00 | 0.01 | 0.01 | 88 | 1010.9 |
| 20260510004332 | 54 | 34 | 2.0 | 4.0 | 0.00 | 0.01 | 0.01 | 88 | 1010.8 |
| 20260510003824 | 55 | 55 | 2.0 | 4.0 | 0.00 | 0.01 | 0.01 | 88 | 1010.8 |
| 20260510003315 | 55 | 55 | 1.0 | 5.0 | 0.00 | 0.01 | 0.01 | 88 | 1010.9 |
| 20260510002322 | 55 | 53 | 2.0 | 4.0 | 0.00 | 0.01 | 0.01 | 88 | 1010.9 |
| 20260510001854 | 55 | 53 | 1.0 | 4.0 | 0.00 | 0.01 | 0.01 | 88 | 1010.9 |
| 20260510001328 | 55 | 61 | 0.0 | 3.0 | 0.00 | 0.01 | 0.01 | 88 | 1010.9 |
| 20260510000820 | 56 | 58 | 1.0 | 4.0 | 0.00 | 0.01 | 0.01 | 88 | 1010.6 |
| 20260510000330 | 56 | 69 | 1.0 | 4.0 | 0.00 | 0.01 | 0.01 | 88 | 1010.5 |
| 20260509235822 | 56 | 52 | 1.0 | 5.0 | 0.00 | 0.01 | 0.01 | 88 | 1010.5 |
| 20260509235313 | 56 | 46 | 2.0 | 5.0 | 0.00 | 0.01 | 0.01 | 88 | 1010.5 |
| 20260509234828 | 57 | 33 | 2.0 | 5.0 | 0.00 | 0.01 | 0.01 | 88 | 1010.4 |
| 20260509234319 | 57 | 62 | 2.0 | 6.0 | 0.00 | 0.01 | 0.01 | 88 | 1010.4 |
| 20260509233834 | 57 | 75 | 3.0 | 6.0 | 0.01 | 0.01 | 0.01 | 88 | 1010.4 |
| 20260509233329 | 58 | 71 | 3.0 | 6.0 | 0.01 | 0.01 | 0.01 | 88 | 1010.3 |
| 20260509232311 | 58 | 38 | 3.0 | 7.0 | 0.01 | 0.01 | 0.01 | 88 | 1010.3 |
| 20260509231826 | 58 | 53 | 2.0 | 6.0 | 0.01 | 0.01 | 0.01 | 88 | 1010.3 |
| 20260509231317 | 58 | 20 | 2.0 | 8.0 | 0.01 | 0.01 | 0.01 | 89 | 1010.3 |
| 20260509230829 | 58 | 28 | 4.0 | 8.0 | 0.01 | 0.01 | 0.01 | 89 | 1010.4 |
| 20260509230340 | 59 | 57 | 4.0 | 7.0 | 0.01 | 0.01 | 0.01 | 89 | 1010.5 |
| 20260509225830 | 59 | 30 | 2.0 | 6.0 | 0.01 | 0.01 | 0.01 | 89 | 1010.5 |
| 20260509225321 | 59 | 36 | 3.0 | 8.0 | 0.01 | 0.01 | 0.01 | 89 | 1010.4 |
| 20260509224816 | 59 | 355 | 3.0 | 9.0 | 0.01 | 0.01 | 0.01 | 90 | 1010.4 |
| 20260509224328 | 59 | 34 | 3.0 | 9.0 | 0.01 | 0.01 | 0.01 | 90 | 1010.4 |
| 20260509223823 | 59 | 98 | 2.0 | 4.0 | 0.00 | 0.00 | 0.00 | 90 | 1010.6 |
| 20260509223315 | 58 | 331 | 1.0 | 3.0 | 0.00 | 0.00 | 0.00 | 90 | 1011.4 |
| 20260509222827 | 58 | 293 | 1.0 | 2.0 | 0.00 | 0.00 | 0.00 | 90 | 1011.3 |
| 20260509222318 | 58 | 265 | 1.0 | 2.0 | 0.00 | 0.00 | 0.00 | 90 | 1011.1 |
| 20260509221830 | 58 | 157 | 0.0 | 1.0 | 0.00 | 0.00 | 0.00 | 90 | 1011.0 |
| 20260509221321 | 57 | 127 | 0.0 | 1.0 | 0.00 | 0.00 | 0.00 | 89 | 1010.8 |
| 20260509220852 | 57 | 127 | 0.0 | 1.0 | 0.00 | 0.00 | 0.00 | 90 | 1010.8 |
| 20260509220326 | 57 | 127 | 0.0 | 3.0 | 0.00 | 0.00 | 0.00 | 90 | 1010.8 |
| 20260509215819 | 57 | 127 | 2.0 | 3.0 | 0.00 | 0.00 | 0.00 | 89 | 1010.8 |
| 20260509215330 | 57 | 125 | 1.0 | 4.0 | 0.00 | 0.00 | 0.00 | 89 | 1010.8 |
| 20260509214820 | 57 | 150 | 2.0 | 4.0 | 0.00 | 0.00 | 0.00 | 89 | 1010.8 |
| 20260509214332 | 57 | 136 | 1.0 | 3.0 | 0.00 | 0.00 | 0.00 | 89 | 1010.6 |
| 20260509213823 | 57 | 157 | 1.0 | 3.0 | 0.00 | 0.00 | 0.00 | 89 | 1010.5 |
| 20260509213315 | 57 | 123 | 0.0 | 3.0 | 0.00 | 0.00 | 0.00 | 89 | 1010.2 |
| 20260509212826 | 57 | 148 | 1.0 | 3.0 | 0.00 | 0.00 | 0.00 | 89 | 1010.4 |
| 20260509212320 | 57 | 175 | 1.0 | 3.0 | 0.00 | 0.00 | 0.00 | 89 | 1010.4 |
| 20260509211832 | 57 | 183 | 1.0 | 3.0 | 0.00 | 0.00 | 0.00 | 89 | 1010.5 |
| 20260509211324 | 57 | 138 | 2.0 | 4.0 | 0.00 | 0.00 | 0.00 | 89 | 1010.5 |
| 20260509210815 | 57 | 133 | 2.0 | 6.0 | 0.00 | 0.00 | 0.00 | 89 | 1010.5 |
| 20260509210327 | 57 | 143 | 2.0 | 6.0 | 0.00 | 0.00 | 0.00 | 89 | 1010.6 |
| 20260509205822 | 57 | 166 | 2.0 | 7.0 | 0.00 | 0.00 | 0.00 | 89 | 1010.7 |
| 20260509205333 | 57 | 190 | 4.0 | 9.0 | 0.00 | 0.00 | 0.00 | 88 | 1010.7 |
| 20260509204844 | 57 | 157 | 5.0 | 9.0 | 0.00 | 0.00 | 0.00 | 88 | 1010.7 |
| 20260509204335 | 57 | 110 | 3.0 | 10.0 | 0.00 | 0.00 | 0.00 | 88 | 1010.7 |
| 20260509203826 | 57 | 146 | 3.0 | 10.0 | 0.00 | 0.00 | 0.00 | 88 | 1010.9 |
| 20260509203322 | 58 | 203 | 6.0 | 10.0 | 0.00 | 0.00 | 0.00 | 87 | 1010.8 |
| 20260509202833 | 58 | 142 | 3.0 | 11.0 | 0.00 | 0.00 | 0.00 | 87 | 1010.8 |
| 20260509202325 | 58 | 196 | 5.0 | 14.0 | 0.00 | 0.00 | 0.00 | 87 | 1010.5 |
| 20260509201816 | 58 | 157 | 7.0 | 13.0 | 0.00 | 0.00 | 0.00 | 87 | 1010.6 |
| 20260509201328 | 58 | 170 | 4.0 | 9.0 | 0.00 | 0.00 | 0.00 | 86 | 1010.5 |
| 20260509200819 | 58 | 123 | 3.0 | 10.0 | 0.00 | 0.00 | 0.00 | 86 | 1010.6 |
| 20260509200311 | 58 | 188 | 4.0 | 12.0 | 0.00 | 0.00 | 0.00 | 86 | 1010.7 |
| 20260509195825 | 58 | 117 | 3.0 | 14.0 | 0.00 | 0.00 | 0.00 | 85 | 1010.8 |
| 20260509195321 | 58 | 192 | 6.0 | 14.0 | 0.00 | 0.00 | 0.00 | 85 | 1011.0 |
| 20260509194812 | 57 | 212 | 5.0 | 13.0 | 0.00 | 0.00 | 0.00 | 85 | 1011.0 |
| 20260509194326 | 57 | 191 | 5.0 | 12.0 | 0.00 | 0.00 | 0.00 | 84 | 1010.9 |
| 20260509193817 | 57 | 184 | 4.0 | 18.0 | 0.00 | 0.00 | 0.00 | 84 | 1010.8 |
| 20260509193331 | 58 | 155 | 7.0 | 18.0 | 0.00 | 0.00 | 0.00 | 84 | 1010.9 |
| 20260509192822 | 58 | 279 | 5.0 | 23.0 | 0.00 | 0.00 | 0.00 | 83 | 1010.9 |
| 20260509192318 | 58 | 175 | 10.0 | 23.0 | 0.00 | 0.00 | 0.00 | 83 | 1010.9 |
| 20260509191848 | 58 | 165 | 11.0 | 17.0 | 0.00 | 0.00 | 0.00 | 82 | 1010.9 |
| 20260509191339 | 59 | 49 | 7.0 | 18.0 | 0.00 | 0.00 | 0.00 | 83 | 1010.9 |
| 20260509190816 | 59 | 132 | 5.0 | 17.0 | 0.00 | 0.00 | 0.00 | 82 | 1010.8 |
| 20260509190331 | 59 | 160 | 7.0 | 19.0 | 0.00 | 0.00 | 0.00 | 82 | 1010.9 |
| 20260509185822 | 59 | 188 | 7.0 | 23.0 | 0.00 | 0.00 | 0.00 | 81 | 1010.9 |
| 20260509185317 | 60 | 173 | 9.0 | 23.0 | 0.00 | 0.00 | 0.00 | 80 | 1010.7 |
| 20260509184828 | 60 | 163 | 9.0 | 24.0 | 0.00 | 0.00 | 0.00 | 80 | 1010.7 |
| 20260509184318 | 60 | 185 | 11.0 | 25.0 | 0.00 | 0.00 | 0.00 | 80 | 1010.8 |
| 20260509183830 | 60 | 164 | 9.0 | 25.0 | 0.00 | 0.00 | 0.00 | 79 | 1010.8 |
| 20260509183324 | 61 | 186 | 10.0 | 23.0 | 0.00 | 0.00 | 0.00 | 78 | 1010.9 |
| 20260509182820 | 61 | 160 | 9.0 | 23.0 | 0.00 | 0.00 | 0.00 | 76 | 1011.0 |
| 20260509182330 | 61 | 190 | 12.0 | 22.0 | 0.00 | 0.00 | 0.00 | 74 | 1011.0 |
| 20260509181825 | 62 | 127 | 8.0 | 17.0 | 0.00 | 0.00 | 0.00 | 75 | 1011.0 |
| 20260509181316 | 61 | 194 | 7.0 | 16.0 | 0.00 | 0.00 | 0.00 | 77 | 1010.9 |
| 20260509180828 | 60 | 203 | 8.0 | 16.0 | 0.00 | 0.00 | 0.00 | 78 | 1010.9 |
| 20260509180318 | 60 | 233 | 6.0 | 23.0 | 0.00 | 0.00 | 0.00 | 78 | 1010.9 |
| 20260509175830 | 59 | 157 | 10.0 | 23.0 | 0.00 | 0.00 | 0.00 | 78 | 1010.8 |
| 20260509175321 | 59 | 166 | 7.0 | 20.0 | 0.00 | 0.00 | 0.00 | 78 | 1010.8 |
| 20260509174853 | 59 | 155 | 9.0 | 20.0 | 0.00 | 0.00 | 0.00 | 77 | 1010.9 |
| 20260509174327 | 59 | 167 | 7.0 | 24.0 | 0.00 | 0.00 | 0.00 | 78 | 1010.9 |
| 20260509173822 | 59 | 92 | 8.0 | 24.0 | 0.00 | 0.00 | 0.00 | 77 | 1010.9 |
| 20260509173355 | 59 | 150 | 8.0 | 21.0 | 0.00 | 0.00 | 0.00 | 76 | 1010.9 |
| 20260509172825 | 60 | 164 | 8.0 | 21.0 | 0.00 | 0.00 | 0.00 | 74 | 1010.8 |
| 20260509172319 | 62 | 223 | 6.0 | 17.0 | 0.00 | 0.00 | 0.00 | 74 | 1010.9 |
| 20260509171831 | 63 | 149 | 6.0 | 13.0 | 0.00 | 0.00 | 0.00 | 74 | 1010.7 |
| 20260509171323 | 63 | 208 | 6.0 | 13.0 | 0.00 | 0.00 | 0.00 | 74 | 1010.7 |
| 20260509170835 | 64 | 200 | 8.0 | 13.0 | 0.00 | 0.00 | 0.00 | 74 | 1010.7 |
| 20260509170325 | 63 | 128 | 5.0 | 15.0 | 0.00 | 0.00 | 0.00 | 74 | 1010.7 |
| 20260509165821 | 63 | 159 | 7.0 | 15.0 | 0.00 | 0.00 | 0.00 | 73 | 1010.7 |
| 20260509165314 | 63 | 181 | 6.0 | 18.0 | 0.00 | 0.00 | 0.00 | 72 | 1010.8 |
| 20260509164826 | 63 | 192 | 7.0 | 18.0 | 0.00 | 0.00 | 0.00 | 72 | 1010.8 |
| 20260509164318 | 63 | 117 | 4.0 | 15.0 | 0.00 | 0.00 | 0.00 | 73 | 1011.0 |
| 20260509163830 | 63 | 128 | 6.0 | 13.0 | 0.00 | 0.00 | 0.00 | 73 | 1011.2 |
| 20260509163321 | 63 | 148 | 7.0 | 19.0 | 0.00 | 0.00 | 0.00 | 73 | 1011.3 |
| 20260509162832 | 63 | 207 | 8.0 | 19.0 | 0.00 | 0.00 | 0.00 | 72 | 1011.5 |
| 20260509162324 | 63 | 168 | 4.0 | 12.0 | 0.00 | 0.00 | 0.00 | 73 | 1011.5 |
| 20260509161820 | 64 | 186 | 7.0 | 13.0 | 0.00 | 0.00 | 0.00 | 72 | 1011.6 |
| 20260509161331 | 63 | 193 | 5.0 | 15.0 | 0.00 | 0.00 | 0.00 | 73 | 1011.7 |
| 20260509160822 | 63 | 153 | 5.0 | 17.0 | 0.00 | 0.00 | 0.00 | 73 | 1011.7 |
| 20260509160318 | 63 | 171 | 6.0 | 19.0 | 0.00 | 0.00 | 0.00 | 72 | 1011.9 |
| 20260509155832 | 63 | 181 | 8.0 | 19.0 | 0.00 | 0.00 | 0.00 | 71 | 1012.0 |
| 20260509155323 | 64 | 200 | 8.0 | 15.0 | 0.00 | 0.00 | 0.00 | 70 | 1012.0 |
| 20260509154818 | 64 | 244 | 4.0 | 12.0 | 0.00 | 0.00 | 0.00 | 70 | 1012.1 |
| 20260509154332 | 65 | 196 | 6.0 | 12.0 | 0.00 | 0.00 | 0.00 | 69 | 1012.0 |
| 20260509153843 | 65 | 172 | 5.0 | 12.0 | 0.00 | 0.00 | 0.00 | 69 | 1012.1 |
| 20260509153318 | 65 | 117 | 4.0 | 15.0 | 0.00 | 0.00 | 0.00 | 70 | 1012.0 |
| 20260509152850 | 66 | 157 | 8.0 | 16.0 | 0.00 | 0.00 | 0.00 | 68 | 1012.1 |
| 20260509152320 | 66 | 170 | 6.0 | 16.0 | 0.00 | 0.00 | 0.00 | 68 | 1012.1 |